(4660) Nereus
ephemeris date magn radius delta ra dec elong phase
Today27 Jul 202620.92.017 AU1.024 AU19h12m-23°16'163.0°8.5°
(4660) Nereus - 2026-07-27
astro.vanbuitenen.nl


 
-1 year
-1 month
-1 day
Now
+1 day
+1 month
+1 year

The interactive orbit chart above shows the body's path through the solar system and its position at the given date. Green and blue lines are shown perpendicular to the ecliptic plane: Green if the path is above the ecliptic plane, blue if it is below. (Left-click and drag to rotate the view; Right-click and drag to move the view; Use scroll wheel to zoom in our out.)

The orbital elements of Nereus are:

            e (Eccentricity)                : 0.3587436
            a (Semimajor axis)              : 1.4851126
            i (Inclination)                 : 1.45354
            Ω (Longitude of ascending node) : 313.10555
            ω (Argument of perihelion)      : 159.55682
            M (Mean anomaly)                : 158.72513
            Epoch                           : 2026 Jun 09

            L (Longitude of perihelion)     : 292.66840
            B (Latitude of perihelion)      : 0.50764
            P (Orbital period in years)     : 1.81            
        

The light curve chart below shows the estimated development of the minor planet's magnitude.


The all-sky chart below shows the path of the minor planet over the same period as the light curve. The current position is marked yellow.





The following chart shows the path of the minor planet in the next few days. The field of view is optimized for (~10x50) binoculars and finderscopes.




Ephemerides:
Date       Time       RA (2000)    DEC (2000)    delta   radius  elong  phase   PA    magn
2026-07-27 00:00 UT   19 12 49.2   -23 16 42     1.024    2.017  163.0    8.5    80   20.9 
2026-07-27 23:40 UT   19 11 15.0   -23 18 24     1.027    2.017  161.7    9.1    80   20.9 
2026-07-28 00:00 UT   19 11 13.7   -23 18 26     1.027    2.017  161.7    9.1    80   20.9 
2026-07-29 00:00 UT   19 09 40.0   -23 20 03     1.031    2.016  160.4    9.7    81   21.0 
2026-07-30 00:00 UT   19 08 08.1   -23 21 33     1.035    2.016  159.1   10.4    81   21.0 
2026-07-31 00:00 UT   19 06 38.1   -23 22 57     1.039    2.016  157.8   11.0    81   21.0 
2026-08-01 00:00 UT   19 05 10.3   -23 24 14     1.044    2.015  156.5   11.6    82   21.1 
2026-08-02 00:00 UT   19 03 44.5   -23 25 24     1.048    2.015  155.2   12.2    82   21.1 
2026-08-03 00:00 UT   19 02 21.0   -23 26 29     1.053    2.015  153.9   12.8    82   21.1 
2026-08-04 00:00 UT   19 00 59.7   -23 27 27     1.058    2.014  152.7   13.4    83   21.2 
2026-08-05 00:00 UT   18 59 40.9   -23 28 19     1.064    2.014  151.4   14.0    83   21.2 
2026-08-06 00:00 UT   18 58 24.4   -23 29 05     1.069    2.013  150.2   14.5    83   21.2 
2026-08-07 00:00 UT   18 57 10.5   -23 29 46     1.075    2.013  148.9   15.1    83   21.3 
2026-08-08 00:00 UT   18 55 59.1   -23 30 22     1.081    2.012  147.7   15.6    83   21.3 
2026-08-09 00:00 UT   18 54 50.3   -23 30 52     1.087    2.012  146.5   16.2    84   21.3 
2026-08-10 00:00 UT   18 53 44.2   -23 31 17     1.093    2.011  145.3   16.7    84   21.4 
2026-08-11 00:00 UT   18 52 40.7   -23 31 37     1.100    2.010  144.1   17.2    84   21.4 
2026-08-12 00:00 UT   18 51 40.1   -23 31 53     1.106    2.010  142.9   17.7    84   21.4 
2026-08-13 00:00 UT   18 50 42.2   -23 32 04     1.113    2.009  141.7   18.2    84   21.4 
2026-08-14 00:00 UT   18 49 47.1   -23 32 11     1.120    2.008  140.5   18.7    84   21.5 
2026-08-15 00:00 UT   18 48 54.8   -23 32 13     1.128    2.008  139.4   19.2    84   21.5 
2026-08-16 00:00 UT   18 48 05.4   -23 32 12     1.135    2.007  138.2   19.7    85   21.5 
2026-08-17 00:00 UT   18 47 18.9   -23 32 07     1.143    2.006  137.1   20.1    85   21.6 
2026-08-18 00:00 UT   18 46 35.2   -23 31 58     1.150    2.005  135.9   20.6    85   21.6 
2026-08-19 00:00 UT   18 45 54.4   -23 31 46     1.158    2.005  134.8   21.0    85   21.6 
2026-08-20 00:00 UT   18 45 16.4   -23 31 31     1.166    2.004  133.7   21.4    85   21.6 
2026-08-21 00:00 UT   18 44 41.3   -23 31 12     1.174    2.003  132.6   21.8    85   21.7 
2026-08-22 00:00 UT   18 44 09.1   -23 30 51     1.183    2.002  131.5   22.2    85   21.7 
2026-08-23 00:00 UT   18 43 39.6   -23 30 27     1.191    2.001  130.5   22.6    85   21.7 
2026-08-24 00:00 UT   18 43 13.0   -23 29 60     1.199    2.000  129.4   23.0    85   21.7 
2026-08-25 00:00 UT   18 42 49.2   -23 29 30     1.208    1.999  128.3   23.4    85   21.8 
2026-08-26 00:00 UT   18 42 28.1   -23 28 58     1.217    1.998  127.3   23.7    85   21.8 


    Terminology:
            
    delta:  distance between minor planet and earth in AU
    radius: distance between minor planet and sun in AU
    magn:   magnitude (brightness) estimate    
    ra:     right ascension in hours (24h = 360deg)
    dec:    declination in degrees
    elong:  elongation in degrees (angle sun-earth-minor planet)    
    phase:  phase angle in degrees (angle sun-minor planet-earth)        
    AU:     Astronomical Unit (mean distance between earth and sun: 149597870.7 km
    

Orbital elements provided by the MPC (Minor Planet Center).
Calculations by a modified version of AAPlus, a C# implementation of the AA+ project by PJ Naughter from the algorithms presented in the book "Astronomical Algorithms" by Jean Meeus.
NGC2000 dso catalog and star labels from VizieR as provided by the Strasbourg astronomical Data Center.
Tycho2 catalog from the ESO archive.